Liberia, Costa Rica

9:11 PM CST on June 22, 2017 (GMT -0600)
Daniel Oduber Quiros International

Weather History for MRLB - March, 2012

Change the Weather History Date:

Thursday, March 29, 2012

  Actual Average Record
Temperature  
Mean Temperature 83 °F -  
Max Temperature 95 °F 93 °F 100 °F (1998)
Min Temperature 71 °F 76 °F 66 °F (2009)
Cooling Degree Days 18    
Growing Degree Days 33 (Base 50)    
Moisture  
Dew Point 61 °F    
Average Humidity 40    
Maximum Humidity 65    
Minimum Humidity 23    
Precipitation  
Precipitation 0.00 in - - ()
Sea Level Pressure  
Sea Level Pressure 29.75 in    
Wind  
Wind Speed 11 mph ()    
Max Wind Speed 21 mph    
Max Gust Speed -    
Visibility 9.4 miles    
Events      
Averages and records for this station are not official NWS values.
T = Trace of Precipitation, MM = Missing Value Source: Averaged Metar Reports

Daily Weather History Graph

Daily Weather History Graph

Search for Another Location

Airport or City:

Trip Planner

Search our weather history database for the weather conditions in past years. The results will help you decide how hot, cold, wet, or windy it might be!

Date:

Astronomy

Mar. 29, 2012 Rise Set
Actual Time 5:40 AM CST 5:52 PM CST
Civil Twilight 5:19 AM CST 6:14 PM CST
Nautical Twilight 4:55 AM CST 6:38 PM CST
Astronomical Twilight 4:30 AM CST 7:03 PM CST
Moon 10:41 AM CST (3/29) 11:40 PM CST (3/29)
Length of Visible Light 12h 54m
Length of Day
12h 12m
Waxing Crescent, 40% of the Moon is Illuminated
Mar 29
Waxing Crescent
Mar 30
First Quarter
Apr 6
Full
Apr 13
Last Quarter
Apr 21
New

Hourly Weather History & Observations

Time (CST) Temp. Heat Index Dew Point Humidity Pressure Visibility Wind Dir Wind Speed Gust Speed Precip Events Conditions
6:00 AM 75 °F - 63 °F 57% 29.70 in 12 mi Calm Calm - -  
6:00 AM 75.2 °F - 62.6 °F 65% 29.74 in - Calm Calm - N/A   Clear
7:00 AM 75.2 °F - 62.6 °F 65% 29.75 in - NNE 6.9 mph - N/A   Clear
8:00 AM 86.0 °F 86.1 °F 60.8 °F 43% 29.77 in - East 17.3 mph - N/A   Clear
9:00 AM 88 °F - 62 °F 32% 29.75 in 12 mi East 15.0 mph - -  
9:00 AM 87.8 °F 88.5 °F 62.6 °F 43% 29.79 in - East 15.0 mph - N/A   Clear
10:00 AM 89.6 °F 89.5 °F 60.8 °F 38% 29.79 in - East 18.4 mph - N/A   Clear
11:00 AM 93.2 °F 92.6 °F 59.0 °F 32% 29.79 in - ENE 16.1 mph - N/A   Clear
12:00 PM 92 °F - 59 °F 24% 29.76 in 12 mi East 16.1 mph - -  
12:00 PM 93.2 °F 92.6 °F 59.0 °F 32% 29.78 in 6.2 mi East 16.1 mph - N/A   Partly Cloudy
1:00 PM 93.2 °F 92.6 °F 59.0 °F 32% 29.75 in 6.2 mi ENE 19.6 mph - N/A   Partly Cloudy
2:00 PM 93.2 °F 92.6 °F 59.0 °F 32% 29.73 in 6.2 mi ENE 18.4 mph - N/A   Partly Cloudy
3:00 PM 93 °F - 60 °F 23% 29.70 in 12 mi ENE 20.7 mph - -   Scattered Clouds
3:00 PM 93.2 °F 93.3 °F 60.8 °F 34% 29.72 in 6.2 mi ENE 20.7 mph - N/A   Partly Cloudy
4:00 PM 93.2 °F 92.6 °F 59.0 °F 32% 29.72 in - ENE 20.7 mph - N/A   Clear
5:00 PM 89.6 °F 88.9 °F 59.0 °F 36% 29.72 in - ENE 20.7 mph - N/A   Clear
6:00 PM 86 °F - 62 °F 35% 29.70 in 12 mi ENE 15.0 mph - -  
6:00 PM 86.0 °F 86.6 °F 62.6 °F 45% 29.74 in - ENE 15.0 mph - N/A   Clear
7:00 PM 84.2 °F 85.0 °F 62.6 °F 48% 29.75 in - ENE 15.0 mph - N/A   Clear
8:00 PM 84.2 °F 85.0 °F 62.6 °F 48% 29.76 in - East 15.0 mph - N/A   Clear